When you browse on this site, cookies collect data to enhance your experience and personalize the content and advertising you see.
Visit our Privacy Policy to learn more. By continuing to use the site, you agree to this use of cookies and data.
  • In Lithuania
  • List of Countries
  • For 7 days
  • Water Temperature
  • Satellite Maps
  • Weather Map
  • Weather Widgets
  • user-avatar
    Login

    Hourly Weather Lenina

    Today, 19 March, Tuesday

    Time Temperature Precipitation Wind Pressure Humidity
    00:00 +6°C° 0 mm 2 mps 768 mmHg 79%
    01:00 +6°C° 0 mm 2 mps 768 mmHg 80%
    02:00 +5°C° 0 mm 2 mps 768 mmHg 82%
    03:00 +5°C° 0 mm 2 mps 768 mmHg 83%
    04:00 +5°C° 0 mm 2 mps 768 mmHg 84%
    05:00 +4°C° 0 mm 2 mps 769 mmHg 85%
    06:00 +4°C° 0 mm 2 mps 769 mmHg 86%
    07:00 +4°C° 0 mm 3 mps 769 mmHg 83%
    08:00 +5°C° 0 mm 3 mps 769 mmHg 80%
    09:00 +7°C° 0 mm 3 mps 769 mmHg 76%
    10:00 +8°C° 0 mm 3 mps 769 mmHg 70%
    11:00 +10°C° 0 mm 4 mps 769 mmHg 65%
    12:00 +11°C° 0 mm 4 mps 769 mmHg 59%
    13:00 +12°C° 0 mm 4 mps 769 mmHg 55%
    14:00 +12°C° 0 mm 3 mps 768 mmHg 52%
    15:00 +13°C° 0 mm 3 mps 768 mmHg 49%
    16:00 +12°C° 0 mm 3 mps 768 mmHg 52%
    17:00 +12°C° 0 mm 3 mps 768 mmHg 54%
    18:00 +12°C° 0 mm 3 mps 768 mmHg 57%
    19:00 +11°C° 0 mm 3 mps 768 mmHg 61%
    20:00 +10°C° 0 mm 3 mps 768 mmHg 65%
    21:00 +9°C° 0 mm 3 mps 768 mmHg 69%
    22:00 +8°C° 0 mm 3 mps 768 mmHg 71%
    23:00 +7°C° 0 mm 3 mps 768 mmHg 72%

    Tomorrow, 20 March, Wednesday

    Time Temperature Precipitation Wind Pressure Humidity
    00:00 +7°C° 0 mm 3 mps 768 mmHg 74%
    01:00 +5°C° 0 mm 3 mps 768 mmHg 75%
    02:00 +5°C° 0 mm 3 mps 768 mmHg 76%
    03:00 +5°C° 0 mm 3 mps 768 mmHg 77%
    04:00 +4°C° 0 mm 3 mps 768 mmHg 77%
    05:00 +4°C° 0 mm 3 mps 768 mmHg 78%
    06:00 +3°C° 0 mm 3 mps 768 mmHg 78%
    07:00 +4°C° 0 mm 3 mps 768 mmHg 74%
    08:00 +5°C° 0 mm 3 mps 768 mmHg 71%
    09:00 +7°C° 0 mm 3 mps 768 mmHg 67%
    10:00 +7°C° 0 mm 4 mps 768 mmHg 61%
    11:00 +10°C° 0 mm 4 mps 768 mmHg 56%
    12:00 +11°C° 0 mm 4 mps 768 mmHg 51%
    13:00 +12°C° 0 mm 4 mps 768 mmHg 49%
    14:00 +13°C° 0 mm 4 mps 767 mmHg 46%
    15:00 +13°C° 0 mm 4 mps 767 mmHg 44%
    16:00 +13°C° 0 mm 3 mps 767 mmHg 46%
    17:00 +12°C° 0 mm 3 mps 767 mmHg 49%
    18:00 +12°C° 0 mm 3 mps 766 mmHg 51%
    19:00 +11°C° 0 mm 3 mps 767 mmHg 54%
    20:00 +10°C° 0 mm 2 mps 767 mmHg 58%
    21:00 +9°C° 0 mm 2 mps 767 mmHg 61%
    22:00 +8°C° 0 mm 2 mps 767 mmHg 63%
    23:00 +8°C° 0 mm 2 mps 767 mmHg 65%

    Day after tomorrow, 21 March, Thursday

    Time Temperature Precipitation Wind Pressure Humidity
    00:00 +7°C° 0 mm 2 mps 767 mmHg 67%
    01:00 +8°C° 0 mm 1 mps 767 mmHg 68%
    02:00 +8°C° 0 mm 1 mps 767 mmHg 70%
    03:00 +7°C° 0 mm 1 mps 767 mmHg 71%
    04:00 +7°C° 0 mm 1 mps 766 mmHg 72%
    05:00 +6°C° 0 mm 0 mps 766 mmHg 73%
    06:00 +5°C° 0 mm 0 mps 766 mmHg 74%
    07:00 +6°C° 0 mm 0 mps 766 mmHg 70%
    08:00 +8°C° 0 mm 0 mps 766 mmHg 66%
    09:00 +9°C° 0 mm 0 mps 767 mmHg 61%
    10:00 +11°C° 0 mm 1 mps 766 mmHg 57%
    11:00 +12°C° 0 mm 1 mps 766 mmHg 54%
    12:00 +13°C° 0 mm 2 mps 766 mmHg 50%
    13:00 +12°C° 0 mm 3 mps 766 mmHg 52%
    14:00 +12°C° 0 mm 3 mps 765 mmHg 55%
    15:00 +12°C° 0 mm 4 mps 765 mmHg 57%
    16:00 +12°C° 0 mm 4 mps 765 mmHg 58%
    17:00 +11°C° 0 mm 4 mps 765 mmHg 60%
    18:00 +10°C° 0 mm 3 mps 765 mmHg 61%
    19:00 +10°C° 0 mm 3 mps 765 mmHg 59%
    20:00 +9°C° 0 mm 3 mps 765 mmHg 57%
    21:00 +8°C° 0 mm 2 mps 765 mmHg 55%
    22:00 +8°C° 0 mm 3 mps 765 mmHg 55%
    23:00 +8°C° 0 mm 3 mps 765 mmHg 56%

    22 March, Friday

    Time Temperature Precipitation Wind Pressure Humidity
    00:00 +7°C° 0 mm 3 mps 765 mmHg 57%
    01:00 +7°C° 0 mm 3 mps 765 mmHg 61%
    02:00 +5°C° 0 mm 4 mps 765 mmHg 65%
    03:00 +5°C° 0 mm 4 mps 765 mmHg 70%
    04:00 +4°C° 0 mm 4 mps 765 mmHg 72%
    05:00 +4°C° 0 mm 4 mps 765 mmHg 74%
    06:00 +3°C° 0 mm 4 mps 766 mmHg 76%
    07:00 +4°C° 0 mm 4 mps 766 mmHg 74%
    08:00 +4°C° 0 mm 4 mps 766 mmHg 71%
    09:00 +5°C° 0 mm 5 mps 767 mmHg 69%
    10:00 +5°C° 0.1 mm 5 mps 767 mmHg 65%
    11:00 +6°C° 0.1 mm 5 mps 767 mmHg 61%
    12:00 +7°C° 0.1 mm 5 mps 767 mmHg 57%
    13:00 +7°C° 0 mm 5 mps 767 mmHg 54%
    14:00 +7°C° 0 mm 5 mps 766 mmHg 52%
    15:00 +8°C° 0 mm 5 mps 766 mmHg 49%
    16:00 +8°C° 0 mm 4 mps 766 mmHg 49%
    17:00 +8°C° 0 mm 4 mps 766 mmHg 48%
    18:00 +9°C° 0 mm 3 mps 766 mmHg 47%
    19:00 +9°C° 0 mm 3 mps 766 mmHg 49%
    20:00 +8°C° 0 mm 2 mps 767 mmHg 51%
    21:00 +8°C° 0 mm 2 mps 767 mmHg 52%
    22:00 +8°C° 0.1 mm 2 mps 766 mmHg 57%
    23:00 +7°C° 0.1 mm 3 mps 766 mmHg 62%

    23 March, Saturday

    Time Temperature Precipitation Wind Pressure Humidity
    00:00 +6°C° 0.1 mm 4 mps 766 mmHg 67%
    01:00 +6°C° 0 mm 4 mps 766 mmHg 69%
    02:00 +6°C° 0 mm 5 mps 765 mmHg 72%
    03:00 +6°C° 0 mm 5 mps 765 mmHg 74%
    04:00 +5°C° 0 mm 5 mps 765 mmHg 78%
    05:00 +5°C° 0 mm 5 mps 764 mmHg 82%
    06:00 +5°C° 0 mm 5 mps 764 mmHg 85%
    07:00 +5°C° 0.1 mm 5 mps 764 mmHg 84%
    08:00 +6°C° 0.1 mm 5 mps 764 mmHg 84%
    09:00 +6°C° 0.1 mm 5 mps 764 mmHg 83%
    10:00 +7°C° 0.1 mm 5 mps 764 mmHg 80%
    11:00 +8°C° 0.1 mm 5 mps 764 mmHg 77%
    12:00 +10°C° 0.1 mm 4 mps 764 mmHg 74%
    13:00 +10°C° 0 mm 5 mps 764 mmHg 67%
    14:00 +12°C° 0 mm 5 mps 764 mmHg 60%
    15:00 +13°C° 0 mm 5 mps 764 mmHg 53%
    16:00 +12°C° 0 mm 5 mps 764 mmHg 55%
    17:00 +12°C° 0 mm 4 mps 764 mmHg 58%
    18:00 +11°C° 0 mm 4 mps 764 mmHg 60%
    19:00 +11°C° 0 mm 4 mps 764 mmHg 64%
    20:00 +10°C° 0 mm 3 mps 764 mmHg 68%
    21:00 +9°C° 0 mm 3 mps 765 mmHg 72%
    22:00 +8°C° 0 mm 4 mps 765 mmHg 73%
    23:00 +8°C° 0 mm 4 mps 764 mmHg 74%

    24 March, Sunday

    Time Temperature Precipitation Wind Pressure Humidity
    00:00 +8°C° 0 mm 4 mps 764 mmHg 75%
    01:00 +7°C° 0 mm 4 mps 764 mmHg 76%
    02:00 +7°C° 0 mm 5 mps 764 mmHg 78%
    03:00 +7°C° 0 mm 5 mps 764 mmHg 79%
    04:00 +7°C° 0 mm 5 mps 763 mmHg 81%
    05:00 +7°C° 0 mm 5 mps 763 mmHg 82%
    06:00 +7°C° 0 mm 5 mps 763 mmHg 84%
    07:00 +8°C° 0 mm 6 mps 763 mmHg 81%
    08:00 +8°C° 0 mm 6 mps 763 mmHg 79%
    09:00 +8°C° 0 mm 6 mps 763 mmHg 76%
    10:00 +9°C° 0 mm 7 mps 763 mmHg 74%
    11:00 +10°C° 0 mm 7 mps 763 mmHg 73%
    12:00 +10°C° 0 mm 7 mps 763 mmHg 71%
    13:00 +11°C° 0.1 mm 7 mps 763 mmHg 69%
    14:00 +11°C° 0.1 mm 7 mps 763 mmHg 67%
    15:00 +12°C° 0.1 mm 7 mps 762 mmHg 65%
    16:00 +11°C° 0.1 mm 6 mps 762 mmHg 68%
    17:00 +12°C° 0.1 mm 5 mps 763 mmHg 70%
    18:00 +12°C° 0.1 mm 4 mps 763 mmHg 72%
    19:00 +11°C° 0.1 mm 4 mps 763 mmHg 75%
    20:00 +10°C° 0.1 mm 4 mps 763 mmHg 78%
    21:00 +10°C° 0.1 mm 4 mps 763 mmHg 81%
    22:00 +10°C° 0.1 mm 4 mps 763 mmHg 82%
    23:00 +8°C° 0.1 mm 4 mps 763 mmHg 82%
    Show more